Location: Aalen
(48.8330°N, 10.1000°E)
Time: 04:30:46
(UTC+02:00)

Transit 2A - Pass Details

Date: 03 August 2021
Orbit: 594 x 964 km, 66.7° (Epoch: 27 September)

Event Time Altitude Azimuth Distance (km) Brightness Sun altitude
Rises 09:32:30 0° 272° (W) 2,911 8.5 33.7°
Reaches altitude 10° 09:35:30 10° 295° (WNW) 2,057 7.8 34.2°
Maximum altitude 09:38:26 16° 334° (NNW) 1,728 7.7 34.7°
Drops below altitude 10° 09:41:32 10° 13° (NNE) 2,189 8.5 35.2°
Sets 09:44:53 0° 35° (NE) 3,195 9.4 35.7°
